This is the latest recevied weather packets stored in our database for station/object AA8FM-13. If no packets are shown the sender has not sent any weather packets the latest 10 day(s).
| Time | Temp. | Humidity | Pressure | Rain* | Wind** | Luminosity | Snow |
|---|---|---|---|---|---|---|---|
| 1777831116 | 13.33° C | 44% | 1014.8 hPa | 0 mm | - | 705 W/m² | - |
| 1777830814 | 13.33° C | 43% | 1014.7 hPa | 0 mm | - | 695 W/m² | - |
| 1777830514 | 12.78° C | 50% | 1014.8 hPa | 0 mm | - | 597 W/m² | - |
| 1777830213 | 13.33° C | 43% | 1014.8 hPa | 0 mm | - | 702 W/m² | - |
| 1777829908 | 13.33° C | 42% | 1015 hPa | 0 mm | - | 703 W/m² | - |
| 1777829605 | 13.33° C | 45% | 1014.8 hPa | 0 mm | - | 704 W/m² | - |
| 1777829301 | 13.33° C | 44% | 1015 hPa | 0 mm | - | 707 W/m² | - |
| 1777828999 | 12.78° C | 46% | 1015 hPa | 0 mm | - | 643 W/m² | - |
| 1777828695 | 12.22° C | 43% | 1015 hPa | 0 mm | - | 700 W/m² | - |
| 1777828392 | 13.33° C | 41% | 1015 hPa | 0 mm | - | 695 W/m² | - |
| 1777828089 | 12.78° C | 44% | 1015.4 hPa | 0 mm | - | 702 W/m² | - |
| 1777827786 | 12.78° C | 45% | 1015.1 hPa | 0 mm | - | 605 W/m² | - |
| 1777827483 | 11.67° C | 46% | 1015.3 hPa | 0 mm | - | 704 W/m² | - |
| 1777827180 | 12.22° C | 43% | 1015.5 hPa | 0 mm | - | 690 W/m² | - |
| 1777826876 | 12.22° C | 47% | 1015.4 hPa | 0 mm | - | 687 W/m² | - |
| 1777826574 | 11.67° C | 49% | 1015.5 hPa | 0 mm | - | 684 W/m² | - |
| 1777826269 | 11.67° C | 46% | 1015.5 hPa | 0 mm | - | 704 W/m² | - |
| 1777825968 | 11.67° C | 50% | 1015.8 hPa | 0 mm | - | 151 W/m² | - |
| 1777825664 | 12.22° C | 49% | 1015.9 hPa | 0 mm | - | 700 W/m² | - |
| 1777825363 | 11.67° C | 48% | 1015.8 hPa | 0 mm | - | 735 W/m² | - |
| 1777825059 | 11.11° C | 53% | 1016.1 hPa | 0 mm | - | 675 W/m² | - |
| 1777824755 | 11.11° C | 49% | 1016.3 hPa | 0 mm | - | 664 W/m² | - |
| 1777824452 | 11.11° C | 47% | 1016.3 hPa | 0 mm | - | 663 W/m² | - |
| 1777824148 | 11.67° C | 46% | 1016.2 hPa | 0 mm | - | 663 W/m² | - |
| 1777823844 | 11.67° C | 49% | 1016.4 hPa | 0 mm | - | 654 W/m² | - |
* Rain latest hour (hover to see other rain measurements)
** Current wind speed in m/s (hover to see current wind gust speed)